Location: Oberwangen
(47.4286°N, 8.9679°E)
Time: 15:32:28
(UTC+00:00)

COBE Rocket - Pass Details

Date: 20 June 2021
Orbit: 679 x 782 km, 97.1° (Epoch: 02 August)

Event Time Altitude Azimuth Distance (km) Brightness Sun altitude
Exits shadow 22:22:09 31° 149° (SSE) 1,298 4.6 -17.7°
Maximum altitude 22:24:32 69° 74° (ENE) 799 4.0 -17.8°
Drops below altitude 10° 22:29:25 10° 352° (N) 2,235 7.7 -18.0°
Sets 22:31:41 0° 351° (N) 3,145 8.9 -18.1°
